Volver al catálogo

ATLAS 5 CENTAUR DEB

ActivoHEO
NORAD 44007·DEBRIS·🇺🇸 United States

Lanzado Sep 17, 2014 desde Cape Canaveral Space Force Station

Loading…

Próximos Pases (próximas 24 horas)

TLE

ActualizadoSource: Space-Track

Época: Sep 9, 2026, 13:29 UTC

1 44007U 14055BN  26252.56231024 -.00000033  00000-0  00000-0 0  9997
2 44007  19.1498 170.3026 4854750 117.8025 299.1317  1.76245191 51122

Sigue ATLAS 5 CENTAUR DEB en tiempo real con AllMySat

Download on the App Store